Time,TemperatureF,DewpointF,PressureIn,WindDirection,WindDirectionDegrees,WindSpeedMPH,WindSpeedGustMPH,Humidity,HourlyPrecipIn,Conditions,Clouds,dailyrainin,SoftwareType,DateUTC
2013-08-08 00:01:00,62.0,61.1,29.74,West,265,0.0,0.0,97,0.00,,---,0.00,VWS V13.01,2013-08-08 04:01:00,
2013-08-08 00:02:00,61.9,61.0,29.74,West,265,0.0,0.0,97,0.00,,---,0.00,VWS V13.01,2013-08-08 04:02:00,
2013-08-08 00:05:00,61.7,60.8,29.74,West,265,0.0,0.0,97,0.00,,---,0.00,VWS V13.01,2013-08-08 04:05:00,
2013-08-08 00:10:00,61.4,60.5,29.74,West,265,0.0,0.0,97,0.00,,---,0.00,VWS V13.01,2013-08-08 04:10:00,
2013-08-08 00:15:00,61.1,60.2,29.74,West,265,0.0,0.0,97,0.00,,---,0.00,VWS V13.01,2013-08-08 04:15:00,
2013-08-08 00:20:00,60.8,60.0,29.73,West,265,0.0,0.0,97,0.00,,---,0.00,VWS V13.01,2013-08-08 04:20:00,
2013-08-08 00:25:00,61.0,60.2,29.73,West,265,0.0,0.0,97,0.00,,---,0.00,VWS V13.01,2013-08-08 04:25:00,
2013-08-08 00:30:00,61.4,60.8,29.73,West,265,0.0,0.0,98,0.00,,---,0.00,VWS V13.01,2013-08-08 04:30:00,
2013-08-08 00:35:00,61.6,61.0,29.73,West,265,0.0,0.0,98,0.00,,---,0.00,VWS V13.01,2013-08-08 04:35:00,
2013-08-08 00:40:00,61.5,60.9,29.73,West,265,0.0,0.0,98,0.00,,---,0.00,VWS V13.01,2013-08-08 04:40:00,
2013-08-08 00:45:00,61.6,61.0,29.72,West,265,0.0,0.0,98,0.00,,---,0.00,VWS V13.01,2013-08-08 04:45:00,
2013-08-08 00:50:00,61.7,61.1,29.73,West,265,0.0,0.0,98,0.00,,---,0.00,VWS V13.01,2013-08-08 04:50:00,
2013-08-08 00:56:00,61.6,61.0,29.73,West,265,0.0,0.0,98,0.00,,---,0.00,VWS V13.01,2013-08-08 04:56:00,
2013-08-08 01:01:00,61.7,61.1,29.72,West,265,0.0,0.0,98,0.00,,---,0.00,VWS V13.01,2013-08-08 05:01:00,
2013-08-08 01:06:00,61.7,61.1,29.71,West,265,0.0,0.0,98,0.00,,---,0.00,VWS V13.01,2013-08-08 05:06:00,
2013-08-08 01:11:00,61.6,61.0,29.71,West,265,0.0,0.0,98,0.00,,---,0.00,VWS V13.01,2013-08-08 05:11:00,
2013-08-08 01:16:00,61.3,60.4,29.70,West,265,0.0,0.0,97,0.00,,---,0.00,VWS V13.01,2013-08-08 05:16:00,
2013-08-08 01:21:00,61.4,60.8,29.70,West,265,0.0,0.0,98,0.00,,---,0.00,VWS V13.01,2013-08-08 05:21:00,
2013-08-08 01:26:00,61.3,60.7,29.70,West,265,0.0,0.0,98,0.00,,---,0.00,VWS V13.01,2013-08-08 05:26:00,
2013-08-08 01:31:00,61.2,60.6,29.70,West,265,0.0,0.0,98,0.00,,---,0.00,VWS V13.01,2013-08-08 05:31:00,
2013-08-08 01:36:00,61.5,60.9,29.70,West,265,0.0,1.0,98,0.00,,---,0.00,VWS V13.01,2013-08-08 05:36:00,
2013-08-08 01:41:00,61.6,61.0,29.70,West,265,0.0,1.0,98,0.00,,---,0.00,VWS V13.01,2013-08-08 05:41:00,
2013-08-08 01:46:00,61.6,61.0,29.70,West,265,0.0,1.0,98,0.00,,---,0.00,VWS V13.01,2013-08-08 05:46:00,
2013-08-08 01:51:00,61.7,61.1,29.70,West,265,0.0,1.0,98,0.00,,---,0.00,VWS V13.01,2013-08-08 05:51:00,
2013-08-08 01:56:00,62.0,61.4,29.70,West,265,0.0,1.0,98,0.00,,---,0.00,VWS V13.01,2013-08-08 05:56:00,
2013-08-08 02:01:00,61.9,61.3,29.70,West,265,0.0,0.0,98,0.00,,---,0.00,VWS V13.01,2013-08-08 06:01:00,
2013-08-08 02:07:00,61.8,61.2,29.70,West,265,0.0,0.0,98,0.00,,---,0.00,VWS V13.01,2013-08-08 06:07:00,
2013-08-08 02:12:00,62.0,61.4,29.69,West,265,0.0,0.0,98,0.00,,---,0.00,VWS V13.01,2013-08-08 06:12:00,
2013-08-08 02:17:00,62.1,61.5,29.70,West,265,0.0,0.0,98,0.00,,---,0.00,VWS V13.01,2013-08-08 06:17:00,
2013-08-08 02:22:00,62.1,61.5,29.70,West,265,0.0,0.0,98,0.00,,---,0.00,VWS V13.01,2013-08-08 06:22:00,
2013-08-08 02:27:00,62.2,61.6,29.70,West,265,0.0,0.0,98,0.00,,---,0.00,VWS V13.01,2013-08-08 06:27:00,
2013-08-08 02:32:00,62.8,62.2,29.70,West,265,0.0,0.0,98,0.00,,---,0.00,VWS V13.01,2013-08-08 06:32:00,
2013-08-08 02:37:00,63.1,62.5,29.70,West,265,0.0,0.0,98,0.00,,---,0.00,VWS V13.01,2013-08-08 06:37:00,
2013-08-08 02:42:00,63.2,62.6,29.70,West,265,0.0,0.0,98,0.00,,---,0.00,VWS V13.01,2013-08-08 06:42:00,
2013-08-08 02:47:00,63.2,62.6,29.70,West,265,0.0,0.0,98,0.00,,---,0.00,VWS V13.01,2013-08-08 06:47:00,
2013-08-08 02:52:00,63.4,62.8,29.70,West,265,0.0,0.0,98,0.00,,---,0.00,VWS V13.01,2013-08-08 06:52:00,
2013-08-08 02:57:00,63.5,62.9,29.69,West,265,0.0,0.0,98,0.00,,---,0.00,VWS V13.01,2013-08-08 06:57:00,
2013-08-08 03:02:00,63.6,63.0,29.69,West,265,0.0,0.0,98,0.00,,---,0.00,VWS V13.01,2013-08-08 07:02:00,
2013-08-08 03:08:00,63.7,63.1,29.69,West,265,0.0,0.0,98,0.00,,---,0.00,VWS V13.01,2013-08-08 07:08:00,
2013-08-08 03:13:00,63.8,63.2,29.69,West,265,0.0,0.0,98,0.00,,---,0.00,VWS V13.01,2013-08-08 07:13:00,
2013-08-08 03:18:00,63.8,63.2,29.68,West,265,0.0,0.0,98,0.00,,---,0.00,VWS V13.01,2013-08-08 07:18:00,
2013-08-08 03:23:00,63.9,63.3,29.69,West,265,0.0,0.0,98,0.00,,---,0.00,VWS V13.01,2013-08-08 07:23:00,
2013-08-08 03:28:00,64.1,63.5,29.69,West,265,0.0,1.0,98,0.00,,---,0.00,VWS V13.01,2013-08-08 07:28:00,
2013-08-08 03:33:00,64.2,63.6,29.69,West,265,0.0,0.0,98,0.00,,---,0.00,VWS V13.01,2013-08-08 07:33:00,
2013-08-08 03:38:00,64.4,63.8,29.69,West,265,0.0,1.0,98,0.00,,---,0.00,VWS V13.01,2013-08-08 07:38:00,
2013-08-08 03:43:00,64.6,64.0,29.69,West,265,0.0,4.0,98,0.00,,---,0.00,VWS V13.01,2013-08-08 07:43:00,
2013-08-08 03:48:00,64.8,64.5,29.69,West,265,0.0,4.0,99,0.00,,---,0.00,VWS V13.01,2013-08-08 07:48:00,
2013-08-08 03:54:00,65.0,64.4,29.69,West,265,0.0,4.0,98,0.00,,---,0.00,VWS V13.01,2013-08-08 07:54:00,
2013-08-08 03:59:00,65.2,64.6,29.69,West,265,0.0,5.0,98,0.00,,---,0.00,VWS V13.01,2013-08-08 07:59:00,
2013-08-08 04:04:00,65.3,64.7,29.69,West,265,0.0,0.0,98,0.00,,---,0.00,VWS V13.01,2013-08-08 08:04:00,
2013-08-08 04:09:00,65.2,64.6,29.68,West,265,0.0,0.0,98,0.00,,---,0.00,VWS V13.01,2013-08-08 08:09:00,
2013-08-08 04:14:00,65.2,64.6,29.68,West,265,0.0,1.0,98,0.00,,---,0.00,VWS V13.01,2013-08-08 08:14:00,
2013-08-08 04:19:00,65.3,64.7,29.68,West,265,0.0,1.0,98,0.00,,---,0.00,VWS V13.01,2013-08-08 08:19:00,
2013-08-08 04:24:00,65.5,64.9,29.68,West,265,0.0,1.0,98,0.00,,---,0.00,VWS V13.01,2013-08-08 08:24:00,
2013-08-08 04:29:00,65.8,65.2,29.68,West,265,0.0,4.0,98,0.00,,---,0.00,VWS V13.01,2013-08-08 08:29:00,
2013-08-08 04:34:00,65.8,65.2,29.68,West,265,0.0,0.0,98,0.00,,---,0.00,VWS V13.01,2013-08-08 08:34:00,
2013-08-08 04:39:00,65.9,65.3,29.68,West,265,0.0,0.0,98,0.00,,---,0.00,VWS V13.01,2013-08-08 08:39:00,
2013-08-08 04:44:00,65.9,65.3,29.69,West,265,0.0,0.0,98,0.00,,---,0.00,VWS V13.01,2013-08-08 08:44:00,
2013-08-08 04:49:00,65.9,65.3,29.69,West,265,0.0,0.0,98,0.00,,---,0.00,VWS V13.01,2013-08-08 08:49:00,
2013-08-08 04:54:00,65.8,65.2,29.69,West,265,0.0,1.0,98,0.00,,---,0.00,VWS V13.01,2013-08-08 08:54:00,
2013-08-08 04:59:00,65.9,65.3,29.69,West,265,0.0,1.0,98,0.00,,---,0.00,VWS V13.01,2013-08-08 08:59:00,
2013-08-08 05:05:00,66.0,65.4,29.69,West,265,2.0,4.0,98,0.00,,---,0.00,VWS V13.01,2013-08-08 09:05:00,
2013-08-08 05:10:00,66.2,65.6,29.69,West,265,0.0,4.0,98,0.00,,---,0.00,VWS V13.01,2013-08-08 09:10:00,
2013-08-08 05:15:00,66.2,65.3,29.69,West,265,0.0,4.0,97,0.00,,---,0.00,VWS V13.01,2013-08-08 09:15:00,
2013-08-08 05:20:00,66.3,65.4,29.69,West,265,0.0,4.0,97,0.00,,---,0.00,VWS V13.01,2013-08-08 09:20:00,
2013-08-08 05:25:00,66.3,65.4,29.69,West,265,0.0,4.0,97,0.00,,---,0.00,VWS V13.01,2013-08-08 09:25:00,
2013-08-08 05:30:00,66.3,65.4,29.69,West,265,0.0,0.0,97,0.00,,---,0.00,VWS V13.01,2013-08-08 09:30:00,
2013-08-08 05:35:00,66.4,65.5,29.69,West,265,0.0,0.0,97,0.00,,---,0.00,VWS V13.01,2013-08-08 09:35:00,
2013-08-08 05:40:00,66.4,65.5,29.69,West,265,0.0,0.0,97,0.00,,---,0.00,VWS V13.01,2013-08-08 09:40:00,
2013-08-08 05:45:00,66.4,65.5,29.69,West,265,0.0,0.0,97,0.00,,---,0.00,VWS V13.01,2013-08-08 09:45:00,
2013-08-08 05:50:00,66.3,65.4,29.69,West,265,0.0,0.0,97,0.00,,---,0.00,VWS V13.01,2013-08-08 09:50:00,
2013-08-08 05:55:00,66.3,65.4,29.70,West,265,0.0,0.0,97,0.00,,---,0.00,VWS V13.01,2013-08-08 09:55:00,
2013-08-08 06:01:00,66.2,65.3,29.69,West,265,0.0,0.0,97,0.00,,---,0.00,VWS V13.01,2013-08-08 10:01:00,
2013-08-08 06:06:00,66.3,65.4,29.70,West,265,0.0,0.0,97,0.00,,---,0.00,VWS V13.01,2013-08-08 10:06:00,
2013-08-08 06:11:00,66.4,65.5,29.70,West,265,0.0,0.0,97,0.00,,---,0.00,VWS V13.01,2013-08-08 10:11:00,
2013-08-08 06:16:00,66.5,65.9,29.70,West,265,0.0,0.0,98,0.00,,---,0.00,VWS V13.01,2013-08-08 10:16:00,
2013-08-08 06:21:00,66.5,65.9,29.70,West,265,0.0,0.0,98,0.00,,---,0.00,VWS V13.01,2013-08-08 10:21:00,
2013-08-08 06:26:00,66.5,65.9,29.70,West,265,0.0,0.0,98,0.00,,---,0.00,VWS V13.01,2013-08-08 10:26:00,
2013-08-08 06:31:00,66.6,66.0,29.70,West,265,0.0,0.0,98,0.00,,---,0.00,VWS V13.01,2013-08-08 10:31:00,
2013-08-08 06:36:00,66.5,65.6,29.70,West,265,0.0,0.0,97,0.00,,---,0.00,VWS V13.01,2013-08-08 10:36:00,
2013-08-08 06:41:00,66.5,65.9,29.70,West,265,0.0,0.0,98,0.00,,---,0.00,VWS V13.01,2013-08-08 10:41:00,
2013-08-08 06:46:00,66.6,66.0,29.70,West,265,0.0,0.0,98,0.00,,---,0.00,VWS V13.01,2013-08-08 10:46:00,
2013-08-08 06:51:00,66.6,66.0,29.70,West,265,0.0,0.0,98,0.00,,---,0.00,VWS V13.01,2013-08-08 10:51:00,
2013-08-08 06:57:00,66.7,66.1,29.70,West,265,0.0,0.0,98,0.00,,---,0.00,VWS V13.01,2013-08-08 10:57:00,
2013-08-08 07:02:00,66.7,66.1,29.70,West,265,0.0,0.0,98,0.00,,---,0.00,VWS V13.01,2013-08-08 11:02:00,
2013-08-08 07:07:00,66.8,66.2,29.70,West,265,0.0,0.0,98,0.00,,---,0.00,VWS V13.01,2013-08-08 11:07:00,
2013-08-08 07:12:00,66.9,66.3,29.70,West,265,0.0,0.0,98,0.00,,---,0.00,VWS V13.01,2013-08-08 11:12:00,
2013-08-08 07:17:00,66.9,66.3,29.70,West,265,0.0,0.0,98,0.00,,---,0.00,VWS V13.01,2013-08-08 11:17:00,
2013-08-08 07:22:00,67.0,66.4,29.71,West,265,0.0,1.0,98,0.00,,---,0.00,VWS V13.01,2013-08-08 11:22:00,
2013-08-08 07:27:00,67.0,66.4,29.71,West,265,0.0,2.0,98,0.00,,---,0.00,VWS V13.01,2013-08-08 11:27:00,
2013-08-08 07:32:00,67.0,66.4,29.71,West,265,0.0,0.0,98,0.00,,---,0.00,VWS V13.01,2013-08-08 11:32:00,
2013-08-08 07:37:00,67.0,66.4,29.71,West,265,0.0,1.0,98,0.00,,---,0.00,VWS V13.01,2013-08-08 11:37:00,
2013-08-08 07:42:00,67.0,66.4,29.71,West,265,0.0,1.0,98,0.00,,---,0.00,VWS V13.01,2013-08-08 11:42:00,
2013-08-08 07:48:00,67.0,66.4,29.71,West,265,0.0,1.0,98,0.00,,---,0.00,VWS V13.01,2013-08-08 11:48:00,
2013-08-08 07:53:00,67.0,66.4,29.71,West,265,0.0,1.0,98,0.00,,---,0.00,VWS V13.01,2013-08-08 11:53:00,
2013-08-08 07:58:00,67.1,66.5,29.71,West,265,0.0,3.0,98,0.00,,---,0.00,VWS V13.01,2013-08-08 11:58:00,
2013-08-08 08:03:00,67.2,66.6,29.71,West,265,0.0,0.0,98,0.00,,---,0.00,VWS V13.01,2013-08-08 12:03:00,
2013-08-08 08:08:00,67.3,66.7,29.71,West,265,0.0,0.0,98,0.00,,---,0.00,VWS V13.01,2013-08-08 12:08:00,
2013-08-08 08:13:00,67.4,66.8,29.71,West,265,0.0,0.0,98,0.00,,---,0.00,VWS V13.01,2013-08-08 12:13:00,
2013-08-08 08:18:00,67.5,66.9,29.71,West,265,0.0,0.0,98,0.00,,---,0.00,VWS V13.01,2013-08-08 12:18:00,
2013-08-08 08:24:00,67.4,66.8,29.71,West,265,0.0,0.0,98,0.00,,---,0.00,VWS V13.01,2013-08-08 12:24:00,
2013-08-08 08:29:00,67.4,66.8,29.71,West,265,0.0,0.0,98,0.00,,---,0.00,VWS V13.01,2013-08-08 12:29:00,
2013-08-08 08:34:00,67.4,66.8,29.71,West,265,0.0,2.0,98,0.00,,---,0.00,VWS V13.01,2013-08-08 12:34:00,
2013-08-08 08:39:00,67.5,66.9,29.71,West,265,0.0,2.0,98,0.00,,---,0.00,VWS V13.01,2013-08-08 12:39:00,
2013-08-08 08:44:00,67.7,67.1,29.71,West,265,0.0,2.0,98,0.00,,---,0.00,VWS V13.01,2013-08-08 12:44:00,
2013-08-08 08:49:00,67.8,67.2,29.71,West,265,0.0,2.0,98,0.00,,---,0.00,VWS V13.01,2013-08-08 12:49:00,
2013-08-08 08:54:00,67.9,67.3,29.71,West,265,0.0,2.0,98,0.00,,---,0.00,VWS V13.01,2013-08-08 12:54:00,
2013-08-08 08:59:00,67.9,67.3,29.71,West,265,0.0,2.0,98,0.00,,---,0.00,VWS V13.01,2013-08-08 12:59:00,
2013-08-08 09:04:00,67.9,67.3,29.71,West,265,0.0,2.0,98,0.00,,---,0.00,VWS V13.01,2013-08-08 13:04:00,
2013-08-08 09:09:00,68.0,67.4,29.71,West,265,0.0,2.0,98,0.00,,---,0.00,VWS V13.01,2013-08-08 13:09:00,
2013-08-08 09:14:00,68.2,67.6,29.71,West,265,0.0,2.0,98,0.00,,---,0.00,VWS V13.01,2013-08-08 13:14:00,
2013-08-08 09:19:00,68.4,67.8,29.70,West,265,0.0,2.0,98,0.00,,---,0.00,VWS V13.01,2013-08-08 13:19:00,
2013-08-08 09:25:00,68.5,67.9,29.70,West,265,0.0,2.0,98,0.00,,---,0.00,VWS V13.01,2013-08-08 13:25:00,
2013-08-08 09:30:00,68.8,68.2,29.70,West,265,0.0,2.0,98,0.00,,---,0.00,VWS V13.01,2013-08-08 13:30:00,
2013-08-08 09:35:00,69.1,68.5,29.70,West,265,5.0,6.0,98,0.00,,---,0.00,VWS V13.01,2013-08-08 13:35:00,
2013-08-08 09:40:00,69.3,68.4,29.70,West,265,4.0,6.0,97,0.00,,---,0.00,VWS V13.01,2013-08-08 13:40:00,
2013-08-08 09:45:00,69.7,68.8,29.70,West,265,0.0,6.0,97,0.00,,---,0.00,VWS V13.01,2013-08-08 13:45:00,
2013-08-08 09:50:00,69.8,68.6,29.70,West,265,0.0,6.0,96,0.00,,---,0.00,VWS V13.01,2013-08-08 13:50:00,
2013-08-08 09:55:00,69.9,68.7,29.70,West,265,0.0,6.0,96,0.00,,---,0.00,VWS V13.01,2013-08-08 13:55:00,
2013-08-08 10:00:00,70.0,68.5,29.70,West,265,0.0,0.0,95,0.00,,---,0.00,VWS V13.01,2013-08-08 14:00:00,
2013-08-08 10:05:00,70.2,68.7,29.70,West,265,0.0,4.0,95,0.00,,---,0.00,VWS V13.01,2013-08-08 14:05:00,
2013-08-08 10:10:00,70.5,69.0,29.70,West,265,0.0,4.0,95,0.00,,---,0.00,VWS V13.01,2013-08-08 14:10:00,
2013-08-08 10:16:00,70.7,69.2,29.70,West,265,0.0,4.0,95,0.00,,---,0.00,VWS V13.01,2013-08-08 14:16:00,
2013-08-08 10:21:00,70.8,69.0,29.70,West,265,0.0,4.0,94,0.00,,---,0.00,VWS V13.01,2013-08-08 14:21:00,
2013-08-08 10:26:00,71.1,69.3,29.70,West,265,0.0,4.0,94,0.00,,---,0.00,VWS V13.01,2013-08-08 14:26:00,
2013-08-08 10:31:00,71.3,69.2,29.70,West,265,0.0,0.0,93,0.00,,---,0.00,VWS V13.01,2013-08-08 14:31:00,
2013-08-08 10:36:00,71.5,69.4,29.70,West,265,0.0,1.0,93,0.00,,---,0.00,VWS V13.01,2013-08-08 14:36:00,
2013-08-08 10:41:00,71.4,69.0,29.69,West,265,0.0,6.0,92,0.00,,---,0.00,VWS V13.01,2013-08-08 14:41:00,
2013-08-08 10:46:00,71.5,69.4,29.70,West,265,0.0,6.0,93,0.00,,---,0.00,VWS V13.01,2013-08-08 14:46:00,
2013-08-08 10:51:00,71.7,69.6,29.70,West,265,0.0,6.0,93,0.00,,---,0.00,VWS V13.01,2013-08-08 14:51:00,
2013-08-08 10:56:00,72.3,69.8,29.70,West,265,0.0,6.0,92,0.00,,---,0.00,VWS V13.01,2013-08-08 14:56:00,
2013-08-08 11:01:00,73.2,70.4,29.70,West,265,0.0,0.0,91,0.00,,---,0.00,VWS V13.01,2013-08-08 15:01:00,
2013-08-08 11:06:00,74.1,71.0,29.70,West,265,3.0,3.0,90,0.00,,---,0.00,VWS V13.01,2013-08-08 15:06:00,
2013-08-08 11:11:00,74.0,70.6,29.71,West,265,0.0,5.0,89,0.00,,---,0.00,VWS V13.01,2013-08-08 15:11:00,
2013-08-08 11:17:00,73.7,70.3,29.70,West,265,0.0,5.0,89,0.00,,---,0.00,VWS V13.01,2013-08-08 15:17:00,
2013-08-08 11:22:00,73.9,70.5,29.71,West,265,0.0,5.0,89,0.00,,---,0.00,VWS V13.01,2013-08-08 15:22:00,
2013-08-08 11:27:00,74.2,70.4,29.71,West,265,0.0,5.0,88,0.00,,---,0.00,VWS V13.01,2013-08-08 15:27:00,
2013-08-08 11:32:00,74.3,70.5,29.71,West,265,0.0,6.0,88,0.00,,---,0.00,VWS V13.01,2013-08-08 15:32:00,
2013-08-08 11:37:00,74.6,70.8,29.71,West,265,0.0,6.0,88,0.00,,---,0.00,VWS V13.01,2013-08-08 15:37:00,
2013-08-08 11:42:00,75.1,71.0,29.71,West,265,0.0,6.0,87,0.00,,---,0.00,VWS V13.01,2013-08-08 15:42:00,
2013-08-08 11:47:00,75.5,71.0,29.71,West,263,0.0,6.0,86,0.00,,---,0.00,VWS V13.01,2013-08-08 15:47:00,
2013-08-08 11:52:00,76.0,71.2,29.71,SSE,150,6.0,6.0,85,0.00,,---,0.00,VWS V13.01,2013-08-08 15:52:00,
2013-08-08 11:57:00,76.1,70.9,29.71,South,188,0.0,6.0,84,0.00,,---,0.00,VWS V13.01,2013-08-08 15:57:00,
2013-08-08 12:02:00,76.4,71.6,29.71,SSE,161,1.0,1.0,85,0.00,,---,0.00,VWS V13.01,2013-08-08 16:02:00,
2013-08-08 12:07:00,76.2,71.4,29.71,SE,136,0.0,7.0,85,0.00,,---,0.00,VWS V13.01,2013-08-08 16:07:00,
2013-08-08 12:12:00,75.8,71.0,29.71,SSE,160,4.0,7.0,85,0.00,,---,0.00,VWS V13.01,2013-08-08 16:12:00,
2013-08-08 12:18:00,75.8,71.3,29.72,SSE,161,0.0,7.0,86,0.00,,---,0.00,VWS V13.01,2013-08-08 16:18:00,
2013-08-08 12:23:00,75.6,70.8,29.72,South,184,0.0,8.0,85,0.00,,---,0.00,VWS V13.01,2013-08-08 16:23:00,
2013-08-08 12:28:00,75.9,71.1,29.72,South,173,0.0,8.0,85,0.00,,---,0.00,VWS V13.01,2013-08-08 16:28:00,
2013-08-08 12:33:00,76.2,71.0,29.72,SE,125,0.0,8.0,84,0.00,,---,0.00,VWS V13.01,2013-08-08 16:33:00,
2013-08-08 12:38:00,76.3,71.8,29.72,ESE,121,0.0,8.0,86,0.00,,---,0.00,VWS V13.01,2013-08-08 16:38:00,
2013-08-08 12:43:00,76.4,71.9,29.72,East,92,5.0,8.0,86,0.00,,---,0.00,VWS V13.01,2013-08-08 16:43:00,
2013-08-08 12:48:00,76.3,71.1,29.72,SE,130,0.0,8.0,84,0.00,,---,0.00,VWS V13.01,2013-08-08 16:48:00,
2013-08-08 12:53:00,76.0,71.2,29.71,ESE,108,2.0,8.0,85,0.00,,---,0.00,VWS V13.01,2013-08-08 16:53:00,
2013-08-08 12:58:00,75.8,71.3,29.71,ESE,106,0.0,8.0,86,0.00,,---,0.00,VWS V13.01,2013-08-08 16:58:00,
2013-08-08 13:03:00,76.1,71.3,29.70,SE,132,0.0,8.0,85,0.00,,---,0.00,VWS V13.01,2013-08-08 17:03:00,
2013-08-08 13:08:00,76.1,71.3,29.70,ESE,109,0.0,8.0,85,0.00,,---,0.00,VWS V13.01,2013-08-08 17:08:00,
2013-08-08 13:14:00,76.3,71.5,29.70,ESE,107,0.0,8.0,85,0.00,,---,0.00,VWS V13.01,2013-08-08 17:14:00,
2013-08-08 13:19:00,76.7,71.5,29.71,ESE,102,0.0,8.0,84,0.00,,---,0.00,VWS V13.01,2013-08-08 17:19:00,
2013-08-08 13:24:00,76.8,71.6,29.71,SSE,150,0.0,9.0,84,0.00,,---,0.00,VWS V13.01,2013-08-08 17:24:00,
2013-08-08 13:29:00,76.5,71.3,29.71,South,171,0.0,9.0,84,0.00,,---,0.00,VWS V13.01,2013-08-08 17:29:00,
2013-08-08 13:34:00,76.7,71.5,29.71,South,171,0.0,1.0,84,0.00,,---,0.00,VWS V13.01,2013-08-08 17:34:00,
2013-08-08 13:39:00,76.6,71.4,29.71,SSW,195,1.0,6.0,84,0.00,,---,0.00,VWS V13.01,2013-08-08 17:39:00,
2013-08-08 13:44:00,76.5,71.3,29.71,SSW,196,0.0,7.0,84,0.00,,---,0.00,VWS V13.01,2013-08-08 17:44:00,
2013-08-08 13:49:00,76.5,71.7,29.71,SSW,195,0.0,7.0,85,0.00,,---,0.00,VWS V13.01,2013-08-08 17:49:00,
2013-08-08 13:54:00,76.6,71.4,29.70,SSW,195,0.0,7.0,84,0.00,,---,0.00,VWS V13.01,2013-08-08 17:54:00,
2013-08-08 13:59:00,76.7,71.5,29.70,SSW,195,0.0,7.0,84,0.00,,---,0.00,VWS V13.01,2013-08-08 17:59:00,
2013-08-08 14:04:00,76.6,71.4,29.70,WSW,240,0.0,7.0,84,0.00,,---,0.00,VWS V13.01,2013-08-08 18:04:00,
2013-08-08 14:09:00,76.5,71.3,29.69,South,180,2.0,7.0,84,0.00,,---,0.00,VWS V13.01,2013-08-08 18:09:00,
2013-08-08 14:15:00,76.7,71.5,29.69,South,180,0.0,7.0,84,0.00,,---,0.00,VWS V13.01,2013-08-08 18:15:00,
2013-08-08 14:20:00,77.2,72.0,29.69,SSE,165,0.0,7.0,84,0.00,,---,0.00,VWS V13.01,2013-08-08 18:20:00,
2013-08-08 14:25:00,77.6,72.0,29.69,SSE,159,0.0,7.0,83,0.00,,---,0.00,VWS V13.01,2013-08-08 18:25:00,
2013-08-08 14:30:00,77.9,72.7,29.69,SW,236,6.0,8.0,84,0.00,,---,0.00,VWS V13.01,2013-08-08 18:30:00,
2013-08-08 14:35:00,77.8,72.6,29.69,SW,234,0.0,6.0,84,0.00,,---,0.00,VWS V13.01,2013-08-08 18:35:00,
2013-08-08 14:40:00,77.6,72.0,29.68,SSE,162,0.0,6.0,83,0.00,,---,0.00,VWS V13.01,2013-08-08 18:40:00,
2013-08-08 14:45:00,77.5,71.9,29.68,SSE,160,6.0,8.0,83,0.00,,---,0.00,VWS V13.01,2013-08-08 18:45:00,
2013-08-08 14:50:00,77.8,72.6,29.68,SSW,193,0.0,8.0,84,0.00,,---,0.00,VWS V13.01,2013-08-08 18:50:00,
2013-08-08 14:55:00,78.0,72.1,29.68,ESE,113,0.0,8.0,82,0.00,,---,0.00,VWS V13.01,2013-08-08 18:55:00,
2013-08-08 15:00:00,77.6,71.7,29.68,NNW,331,0.0,0.0,82,0.00,,---,0.00,VWS V13.01,2013-08-08 19:00:00,
2013-08-08 15:05:00,77.1,71.5,29.68,WNW,294,2.0,7.0,83,0.00,,---,0.00,VWS V13.01,2013-08-08 19:05:00,
2013-08-08 15:10:00,77.1,71.9,29.68,WNW,294,1.0,7.0,84,0.00,,---,0.00,VWS V13.01,2013-08-08 19:10:00,
2013-08-08 15:15:00,77.2,72.0,29.68,WNW,294,2.0,7.0,84,0.00,,---,0.00,VWS V13.01,2013-08-08 19:15:00,
2013-08-08 15:21:00,77.1,71.9,29.68,WNW,292,2.0,7.0,84,0.00,,---,0.00,VWS V13.01,2013-08-08 19:21:00,
2013-08-08 15:26:00,77.0,72.2,29.68,WNW,291,5.0,7.0,85,0.00,,---,0.00,VWS V13.01,2013-08-08 19:26:00,
2013-08-08 15:31:00,77.0,72.2,29.68,WNW,292,4.0,5.0,85,0.00,,---,0.00,VWS V13.01,2013-08-08 19:31:00,
2013-08-08 15:36:00,77.0,72.2,29.68,WNW,292,3.0,5.0,85,0.00,,---,0.00,VWS V13.01,2013-08-08 19:36:00,
2013-08-08 15:41:00,77.2,72.3,29.68,WNW,291,0.0,5.0,85,0.00,,---,0.00,VWS V13.01,2013-08-08 19:41:00,
2013-08-08 15:46:00,77.4,72.2,29.68,WNW,291,0.0,5.0,84,0.00,,---,0.00,VWS V13.01,2013-08-08 19:46:00,
2013-08-08 15:51:00,77.8,72.6,29.68,WNW,292,1.0,5.0,84,0.00,,---,0.00,VWS V13.01,2013-08-08 19:51:00,
2013-08-08 15:56:00,78.0,72.4,29.68,WNW,292,0.0,5.0,83,0.00,,---,0.00,VWS V13.01,2013-08-08 19:56:00,
2013-08-08 16:02:00,78.0,72.1,29.67,WNW,292,0.0,0.0,82,0.00,,---,0.00,VWS V13.01,2013-08-08 20:02:00,
2013-08-08 16:07:00,78.4,72.8,29.67,WNW,291,0.0,1.0,83,0.00,,---,0.00,VWS V13.01,2013-08-08 20:07:00,
2013-08-08 16:12:00,78.7,72.8,29.67,WNW,292,0.0,1.0,82,0.00,,---,0.00,VWS V13.01,2013-08-08 20:12:00,
2013-08-08 16:17:00,78.7,72.8,29.67,WNW,291,0.0,3.0,82,0.00,,---,0.00,VWS V13.01,2013-08-08 20:17:00,
2013-08-08 16:22:00,78.9,72.9,29.67,WNW,291,0.0,5.0,82,0.00,,---,0.00,VWS V13.01,2013-08-08 20:22:00,
2013-08-08 16:27:00,78.9,72.6,29.66,WNW,292,0.0,6.0,81,0.00,,---,0.00,VWS V13.01,2013-08-08 20:27:00,
2013-08-08 16:32:00,78.8,72.5,29.66,WNW,291,0.0,0.0,81,0.00,,---,0.00,VWS V13.01,2013-08-08 20:32:00,
2013-08-08 16:37:00,78.9,72.6,29.65,WNW,292,0.0,0.0,81,0.00,,---,0.00,VWS V13.01,2013-08-08 20:37:00,
2013-08-08 16:42:00,79.3,72.6,29.66,WNW,292,1.0,1.0,80,0.00,,---,0.00,VWS V13.01,2013-08-08 20:42:00,
2013-08-08 16:47:00,80.1,72.6,29.65,WNW,291,0.0,5.0,78,0.00,,---,0.00,VWS V13.01,2013-08-08 20:47:00,
2013-08-08 16:52:00,81.1,73.6,29.64,WNW,292,0.0,5.0,78,0.00,,---,0.00,VWS V13.01,2013-08-08 20:52:00,
2013-08-08 16:57:00,80.9,73.0,29.65,NW,311,0.0,5.0,77,0.00,,---,0.00,VWS V13.01,2013-08-08 20:57:00,
2013-08-08 17:02:00,80.1,72.6,29.64,NW,311,0.0,1.0,78,0.00,,---,0.00,VWS V13.01,2013-08-08 21:02:00,
2013-08-08 17:07:00,79.5,72.8,29.65,NW,311,0.0,1.0,80,0.00,,---,0.00,VWS V13.01,2013-08-08 21:07:00,
2013-08-08 17:13:00,79.1,72.4,29.65,NW,311,0.0,5.0,80,0.00,,---,0.00,VWS V13.01,2013-08-08 21:13:00,
2013-08-08 17:18:00,79.3,73.3,29.65,NW,311,0.0,5.0,82,0.00,,---,0.00,VWS V13.01,2013-08-08 21:18:00,
2013-08-08 17:24:00,79.7,72.6,29.65,NW,311,0.0,5.0,79,0.00,,---,0.00,VWS V13.01,2013-08-08 21:24:00,
2013-08-08 17:29:00,79.9,72.8,29.64,NW,311,0.0,5.0,79,0.00,,---,0.00,VWS V13.01,2013-08-08 21:29:00,
2013-08-08 17:34:00,80.3,72.4,29.64,NW,307,0.0,4.0,77,0.00,,---,0.00,VWS V13.01,2013-08-08 21:34:00,
2013-08-08 17:39:00,80.2,73.1,29.64,WNW,301,0.0,5.0,79,0.00,,---,0.00,VWS V13.01,2013-08-08 21:39:00,
2013-08-08 17:47:00,79.8,72.3,29.64,WNW,300,0.0,5.0,78,0.00,,---,0.00,VWS V13.01,2013-08-08 21:47:00,
2013-08-08 17:52:00,79.9,72.4,29.64,WNW,300,1.0,5.0,78,0.00,,---,0.00,VWS V13.01,2013-08-08 21:52:00,
2013-08-08 17:58:00,79.6,72.5,29.65,WNW,300,0.0,5.0,79,0.00,,---,0.00,VWS V13.01,2013-08-08 21:58:00,
2013-08-08 18:03:00,79.4,72.3,29.65,WNW,300,0.0,1.0,79,0.00,,---,0.00,VWS V13.01,2013-08-08 22:03:00,
2013-08-08 18:08:00,79.7,73.4,29.65,WNW,300,0.0,1.0,81,0.00,,---,0.00,VWS V13.01,2013-08-08 22:08:00,
2013-08-08 18:14:00,79.5,73.2,29.65,WNW,300,0.0,1.0,81,0.00,,---,0.00,VWS V13.01,2013-08-08 22:14:00,
2013-08-08 18:20:00,78.9,73.3,29.65,WNW,300,0.0,6.0,83,0.00,,---,0.00,VWS V13.01,2013-08-08 22:20:00,
2013-08-08 18:25:00,78.7,72.4,29.65,WNW,300,0.0,6.0,81,0.00,,---,0.00,VWS V13.01,2013-08-08 22:25:00,
2013-08-08 18:31:00,78.7,72.8,29.64,WNW,300,0.0,0.0,82,0.00,,---,0.00,VWS V13.01,2013-08-08 22:31:00,
2013-08-08 18:36:00,78.7,72.8,29.64,WNW,300,0.0,6.0,82,0.00,,---,0.00,VWS V13.01,2013-08-08 22:36:00,
2013-08-08 18:41:00,78.4,72.4,29.64,WNW,300,0.0,6.0,82,0.00,,---,0.00,VWS V13.01,2013-08-08 22:41:00,
2013-08-08 18:47:00,78.0,72.8,29.64,WNW,300,0.0,6.0,84,0.00,,---,0.00,VWS V13.01,2013-08-08 22:47:00,
2013-08-08 18:53:00,77.6,72.4,29.65,WNW,300,0.0,6.0,84,0.00,,---,0.00,VWS V13.01,2013-08-08 22:53:00,
2013-08-08 18:59:00,77.4,72.5,29.65,WNW,300,0.0,6.0,85,0.00,,---,0.00,VWS V13.01,2013-08-08 22:59:00,
2013-08-08 19:04:00,77.3,72.4,29.65,WNW,300,0.0,0.0,85,0.00,,---,0.00,VWS V13.01,2013-08-08 23:04:00,
2013-08-08 19:10:00,77.4,72.5,29.64,WNW,300,0.0,1.0,85,0.00,,---,0.00,VWS V13.01,2013-08-08 23:10:00,
2013-08-08 19:15:00,77.3,72.4,29.65,WNW,300,0.0,1.0,85,0.00,,---,0.00,VWS V13.01,2013-08-08 23:15:00,
2013-08-08 19:20:00,77.1,72.9,29.65,WNW,300,0.0,1.0,87,0.00,,---,0.00,VWS V13.01,2013-08-08 23:20:00,
2013-08-08 19:25:00,76.5,72.7,29.65,WNW,300,0.0,1.0,88,0.00,,---,0.00,VWS V13.01,2013-08-08 23:25:00,
2013-08-08 19:31:00,76.1,72.6,29.65,WNW,300,0.0,0.0,89,0.00,,---,0.00,VWS V13.01,2013-08-08 23:31:00,
2013-08-08 19:36:00,75.7,72.6,29.65,WNW,300,0.0,0.0,90,0.00,,---,0.00,VWS V13.01,2013-08-08 23:36:00,
2013-08-08 19:41:00,75.6,72.5,29.65,WNW,300,0.0,0.0,90,0.00,,---,0.00,VWS V13.01,2013-08-08 23:41:00,
2013-08-08 19:46:00,75.3,72.2,29.65,WNW,300,0.0,0.0,90,0.00,,---,0.00,VWS V13.01,2013-08-08 23:46:00,
2013-08-08 19:51:00,75.4,72.6,29.65,WNW,300,0.0,0.0,91,0.00,,---,0.00,VWS V13.01,2013-08-08 23:51:00,
2013-08-08 19:56:00,75.6,72.8,29.65,WNW,300,0.0,0.0,91,0.00,,---,0.00,VWS V13.01,2013-08-08 23:56:00,
2013-08-08 20:02:00,75.5,72.4,29.65,WNW,300,0.0,0.0,90,0.00,,---,0.00,VWS V13.01,2013-08-09 00:02:00,
2013-08-08 20:07:00,75.3,72.2,29.64,WNW,300,0.0,0.0,90,0.00,,---,0.00,VWS V13.01,2013-08-09 00:07:00,
2013-08-08 20:13:00,75.2,72.4,29.65,WNW,300,0.0,0.0,91,0.00,,---,0.00,VWS V13.01,2013-08-09 00:13:00,
2013-08-08 20:19:00,74.6,71.5,29.64,WNW,300,0.0,1.0,90,0.00,,---,0.00,VWS V13.01,2013-08-09 00:19:00,
2013-08-08 20:25:00,73.9,71.1,29.64,WNW,300,0.0,1.0,91,0.00,,---,0.00,VWS V13.01,2013-08-09 00:25:00,
2013-08-08 20:30:00,73.3,70.8,29.64,WNW,300,0.0,1.0,92,0.00,,---,0.00,VWS V13.01,2013-08-09 00:30:00,
2013-08-08 20:35:00,73.0,70.5,29.64,WNW,300,0.0,0.0,92,0.00,,---,0.00,VWS V13.01,2013-08-09 00:35:00,
2013-08-08 20:40:00,72.7,70.2,29.65,WNW,300,0.0,0.0,92,0.00,,---,0.00,VWS V13.01,2013-08-09 00:40:00,
2013-08-08 20:45:00,72.4,70.3,29.65,WNW,300,0.0,0.0,93,0.00,,---,0.00,VWS V13.01,2013-08-09 00:45:00,
2013-08-08 20:50:00,72.2,70.1,29.65,WNW,300,0.0,0.0,93,0.00,,---,0.00,VWS V13.01,2013-08-09 00:50:00,
2013-08-08 20:56:00,72.0,69.9,29.65,WNW,300,0.0,0.0,93,0.00,,---,0.00,VWS V13.01,2013-08-09 00:56:00,
2013-08-08 21:01:00,71.8,70.0,29.65,WNW,300,0.0,0.0,94,0.00,,---,0.00,VWS V13.01,2013-08-09 01:01:00,
2013-08-08 21:07:00,71.6,69.8,29.65,WNW,300,0.0,0.0,94,0.00,,---,0.00,VWS V13.01,2013-08-09 01:07:00,
2013-08-08 21:15:00,71.4,69.6,29.66,WNW,300,0.0,0.0,94,0.00,,---,0.00,VWS V13.01,2013-08-09 01:15:00,
2013-08-08 21:21:00,71.3,69.8,29.66,WNW,300,0.0,0.0,95,0.00,,---,0.00,VWS V13.01,2013-08-09 01:21:00,
2013-08-08 21:27:00,71.3,69.8,29.66,WNW,300,0.0,0.0,95,0.00,,---,0.00,VWS V13.01,2013-08-09 01:27:00,
2013-08-08 21:32:00,71.2,69.7,29.66,WNW,300,0.0,0.0,95,0.00,,---,0.00,VWS V13.01,2013-08-09 01:32:00,
2013-08-08 21:37:00,71.0,69.5,29.66,WNW,300,0.0,0.0,95,0.00,,---,0.00,VWS V13.01,2013-08-09 01:37:00,
2013-08-08 21:42:00,70.7,69.2,29.66,WNW,300,0.0,0.0,95,0.00,,---,0.00,VWS V13.01,2013-08-09 01:42:00,
2013-08-08 21:48:00,70.4,68.9,29.66,WNW,300,0.0,0.0,95,0.00,,---,0.00,VWS V13.01,2013-08-09 01:48:00,
2013-08-08 21:53:00,70.2,68.7,29.66,WNW,300,0.0,0.0,95,0.00,,---,0.00,VWS V13.01,2013-08-09 01:53:00,
2013-08-08 21:58:00,70.0,68.8,29.66,WNW,300,0.0,0.0,96,0.00,,---,0.00,VWS V13.01,2013-08-09 01:58:00,
2013-08-08 22:03:00,69.8,68.6,29.66,WNW,300,0.0,0.0,96,0.00,,---,0.00,VWS V13.01,2013-08-09 02:03:00,
2013-08-08 22:09:00,69.8,68.6,29.66,WNW,300,0.0,0.0,96,0.00,,---,0.00,VWS V13.01,2013-08-09 02:09:00,
2013-08-08 22:14:00,69.6,68.4,29.67,WNW,300,0.0,0.0,96,0.00,,---,0.00,VWS V13.01,2013-08-09 02:14:00,
2013-08-08 22:21:00,69.5,68.3,29.67,WNW,300,0.0,0.0,96,0.00,,---,0.00,VWS V13.01,2013-08-09 02:21:00,
2013-08-08 22:26:00,69.4,68.2,29.67,WNW,300,0.0,0.0,96,0.00,,---,0.00,VWS V13.01,2013-08-09 02:26:00,
2013-08-08 22:31:00,69.2,68.0,29.66,WNW,300,0.0,0.0,96,0.00,,---,0.00,VWS V13.01,2013-08-09 02:31:00,
2013-08-08 22:37:00,69.1,67.9,29.67,WNW,300,0.0,0.0,96,0.00,,---,0.00,VWS V13.01,2013-08-09 02:37:00,
2013-08-08 22:42:00,69.0,67.8,29.67,WNW,300,0.0,1.0,96,0.00,,---,0.00,VWS V13.01,2013-08-09 02:42:00,
2013-08-08 22:47:00,68.9,67.7,29.66,WNW,300,0.0,1.0,96,0.00,,---,0.00,VWS V13.01,2013-08-09 02:47:00,
2013-08-08 22:53:00,68.8,67.9,29.66,WNW,300,0.0,1.0,97,0.00,,---,0.00,VWS V13.01,2013-08-09 02:53:00,
2013-08-08 22:59:00,68.9,68.0,29.66,WNW,300,0.0,1.0,97,0.00,,---,0.00,VWS V13.01,2013-08-09 02:59:00,
2013-08-08 23:04:00,68.9,68.0,29.66,WNW,300,0.0,0.0,97,0.00,,---,0.00,VWS V13.01,2013-08-09 03:04:00,
2013-08-08 23:09:00,69.0,68.1,29.66,WNW,300,0.0,0.0,97,0.00,,---,0.00,VWS V13.01,2013-08-09 03:09:00,
2013-08-08 23:15:00,68.8,67.9,29.65,WNW,300,0.0,0.0,97,0.00,,---,0.00,VWS V13.01,2013-08-09 03:15:00,
2013-08-08 23:21:00,68.5,67.6,29.65,WNW,300,0.0,0.0,97,0.00,,---,0.00,VWS V13.01,2013-08-09 03:21:00,
2013-08-08 23:26:00,68.5,67.6,29.65,WNW,300,0.0,0.0,97,0.00,,---,0.00,VWS V13.01,2013-08-09 03:26:00,
2013-08-08 23:31:00,68.6,67.7,29.65,WNW,300,0.0,0.0,97,0.00,,---,0.00,VWS V13.01,2013-08-09 03:31:00,
2013-08-08 23:37:00,68.6,67.7,29.65,WNW,300,0.0,0.0,97,0.00,,---,0.00,VWS V13.01,2013-08-09 03:37:00,
2013-08-08 23:42:00,68.8,68.2,29.65,WNW,300,0.0,0.0,98,0.00,,---,0.00,VWS V13.01,2013-08-09 03:42:00,
2013-08-08 23:48:00,68.9,68.3,29.65,WNW,300,0.0,0.0,98,0.00,,---,0.00,VWS V13.01,2013-08-09 03:48:00,
2013-08-08 23:53:00,68.9,68.3,29.65,WNW,300,0.0,0.0,98,0.00,,---,0.00,VWS V13.01,2013-08-09 03:53:00,
2013-08-08 23:58:00,69.0,68.4,29.65,WNW,300,0.0,0.0,98,0.00,,---,0.00,VWS V13.01,2013-08-09 03:58:00,